COSMOS 2513 1 41121U 15075A 21062.19482257 -.00000147 00000-0 00000+0 0 9998 2 41121 0.0467 117.0072 0001977 241.2192 313.3285 1.00273027 19222 BREEZE-M R/B 1 41122U 15075B 21061.36518216 -.00000057 00000-0 00000+0 0 9992 2 41122 4.0613 79.1511 0312088 103.0906 260.7443 1.04639229 19968 BREEZE-M DEB 1 41543U 15075D 21057.07827659 -.00000176 00000-0 00000-0 0 9999 2 41543 4.0136 79.8031 0247836 116.2015 246.6617 1.05309414 19680 BREEZE-M DEB 1 41544U 15075E 21060.91757811 -.00000112 00000-0 00000-0 0 9999 2 41544 3.9839 81.6096 0293107 115.3338 248.0729 1.05680069 19803 BREEZE-M DEB 1 41546U 15075G 21060.44388514 -.00000110 00000-0 00000-0 0 9997 2 41546 4.0125 83.7421 0235934 101.3213 261.6781 1.04638551 19594 BREEZE-M DEB 1 41547U 15075H 21038.24920766 -.00000166 00000-0 00000-0 0 9993 2 41547 4.0202 84.7183 0257907 75.2321 287.6446 1.03189727 19096 BREEZE-M DEB 1 41548U 15075J 21062.13218828 -.00000137 00000-0 00000+0 0 9995 2 41548 4.3332 71.5654 0367557 79.8672 284.5538 1.02194758 19090